{"data":{"norad_id":68476,"intl_designator":"2026-067BN","name":"LEMUR-2-JULIA-JOEL","alt_names":[],"object_type":"PAYLOAD","status":"ACTIVE","operator":null,"country":"LUXE","launch_date":"2026-03-30","launch_site_code":"AFWTR","launch_vehicle":null,"mission":null,"orbit_class":"UNKNOWN","rcs_meters":null,"size_class":null,"mass_kg":null,"dimensions":null,"purposes":[],"wikipedia_slug":null,"has_3d_model":false,"image_url":null,"decayed_at":null,"tle_current":{"epoch":"2026-09-20T01:02:44.556000Z","epoch_age_seconds":108372,"freshness":"FRESH","line1":"1 68476U 26067BN  26263.04357125  .00002490  00000+0  24313-3 0  9998","line2":"2 68476  97.7666 220.0743 0001613   8.4491 351.6755 14.93306854 25887","mean_motion":14.93306854,"eccentricity":0.0001613,"inclination_deg":97.7666,"raan_deg":220.0743,"arg_perigee_deg":8.4491,"mean_anomaly_deg":351.6755,"bstar":0.00024313,"rev_number":2588,"period_min":96.430281301046,"perigee_km":586.50950372583,"apogee_km":588.75666115443,"semimajor_km":6965.7700824401,"source":"CELESTRAK","updated_at":"2026-09-20T09:00:24.243091Z"}}}